#timestamp,LO_Frequency,Hit,StdDev 
1576339215.6,286047000.5,N
1576339235.5,286047001.2,N
1576339255.3,286047001.1,N
1576339275.1,286046998.4,N
1576339295.9,286046998.6,N
1576339315.7,286046999.3,N
1576339335.5,286046998.6,N
1576339355.4,286046998.7,N
1576339375.2,286047001.1,N
1576339395.1,286046998.6,N
1576339396.0,286046998.6,N
1576339415.8,286047000.9,N
1576339435.6,286046998.3,N
1576339455.5,286046998.8,N
1576339475.3,286046999.0,N
1576339495.1,286046999.3,N
1576339515.9,286046998.8,N
1576339535.7,286046998.5,N
1576339555.6,286046998.4,N
1576339575.4,286046999.2,N
1576339595.2,286047000.5,N
1576339615.1,286046999.9,N
1576339616.0,286046999.9,N
1576339635.8,286046998.1,N
1576339655.7,286047001.0,N
1576339675.5,286047001.2,N
1576339695.3,286046998.4,N
1576339715.2,286046999.3,N
1576339735.0,286046997.3,N
1576339735.9,286046997.3,N
1576339755.8,286046997.4,N
1576339775.6,286046998.7,N
1576339795.4,286046999.9,N
1576339815.3,286047000.9,N
1576339835.1,286046999.0,N
1576339855.8,286047000.6,N
1576339875.7,286046999.6,N
1576339895.5,286046997.5,N
1576339915.4,286046997.2,N
1576339935.2,286046997.9,N
1576339955.0,286046996.5,Y
1576339955.9,286046996.5,P
1576339975.8,286047000.8,N
1576339995.6,286046999.8,N
1576340015.4,286047000.2,N
1576340035.3,286047000.2,N
1576340055.1,286047002.4,N
1576340075.9,286047000.9,N
1576340095.7,286047000.1,N
1576340115.5,286046999.9,N
1576340135.4,286046999.2,N
1576340155.2,286046998.5,N
1576340175.0,286046998.4,N
1576340176.0,286046998.4,N
1576340195.8,286046998.1,N
1576340215.6,286046999.7,N
1576340235.5,286047002.7,N
1576340255.3,286046998.6,N
1576340275.1,286047000.8,N
1576340295.9,286046998.2,N
1576340315.7,286046999.5,N
1576340335.6,286046999.1,N
1576340355.4,286046998.4,N
1576340375.2,286046997.0,N
1576340395.1,286046997.2,N
1576340396.0,286046997.2,N
1576340415.8,286046997.4,N
1576340435.7,286046995.0,Y
1576340455.5,286046996.7,P
1576340475.3,286046996.8,N
1576340495.2,286047000.5,N
1576340515.0,286046998.1,N
1576340515.9,286046998.1,N
1576340535.7,286046999.3,N
1576340555.6,286046996.5,N
1576340575.4,286046997.1,N
1576340595.3,286046999.1,N
1576340615.1,286046998.9,N
1576340616.0,286046998.9,N
1576340635.8,286046998.3,N
1576340655.7,286046999.3,N
1576340675.5,286047000.3,N
1576340695.3,286047000.9,N
1576340715.2,286047002.4,N
1576340735.0,286047000.2,N
1576340735.9,286047000.2,N
1576340755.8,286046998.9,N
1576340775.6,286046996.6,N
1576340795.4,286046995.1,Y
1576340815.3,286046997.0,P
1576340835.1,286046996.6,P
1576340855.9,286047001.0,N
1576340875.7,286047002.2,N
1576340895.5,286046999.9,N
1576340915.4,286047002.6,N
1576340935.2,286047001.4,N
1576340955.0,286047002.8,N
1576340955.9,286047002.8,N
1576340975.8,286047001.6,N
1576340995.6,286047001.7,N
1576341015.5,286047000.4,N
1576341035.3,286046998.6,N
1576341055.1,286046999.4,N
1576341075.9,286046998.3,N
1576341095.7,286046998.9,N
1576341115.5,286047000.4,N
1576341135.4,286046999.7,N
1576341155.2,286047002.7,N
1576341175.1,286047001.2,N
1576341176.0,286047001.2,N
1576341195.8,286046998.1,N
1576341215.6,286046998.4,N
1576341235.5,286046999.1,N
1576341255.3,286046998.8,N
1576341275.1,286046998.6,N
1576341295.9,286046998.1,N
1576341315.7,286046998.7,N
1576341335.6,286046998.1,N
1576341355.4,286047000.9,N
1576341375.2,286047000.8,N
1576341395.1,286047000.0,N
1576341396.0,286047000.0,N
1576341415.8,286046998.6,N
1576341435.6,286046999.5,N
1576341455.5,286047001.1,N
1576341475.3,286046999.0,N
1576341495.2,286046998.8,N
1576341515.9,286046998.3,N
1576341535.7,286046998.5,N
1576341555.6,286046998.3,N
1576341575.4,286046999.2,N
1576341595.2,286046999.3,N
1576341615.1,286046996.5,Y
1576341616.0,286046996.5,P
1576341635.8,286046999.1,N
1576341655.7,286046999.4,N
1576341675.5,286047001.2,N
1576341695.3,286046999.4,N
1576341715.2,286046999.1,N
1576341735.0,286046998.9,N
1576341735.9,286046998.9,N
1576341755.7,286047000.9,N
1576341775.6,286046998.9,N
1576341795.4,286046998.1,N
1576341815.3,286046996.5,Y
1576341835.1,286047001.2,P
1576341855.8,286047000.3,N
1576341875.7,286047000.9,N
1576341895.5,286047000.1,N
1576341915.3,286047000.7,N
1576341935.2,286046998.8,N
1576341955.0,286046997.8,N
1576341955.9,286046997.8,N
1576341975.8,286046997.4,N
1576341995.6,286046995.3,Y
1576342015.4,286046996.8,P
1576342035.3,286046998.4,N
1576342055.1,286046996.9,N
1576342075.9,286046996.5,Y
1576342095.7,286047001.0,P
1576342115.5,286047001.8,N
1576342135.4,286047002.1,N
1576342155.2,286047001.8,N
1576342175.0,286047002.1,N
1576342175.9,286047002.1,N
1576342195.8,286047001.8,N
1576342215.6,286047001.4,N
1576342235.5,286047003.5,N
1576342255.3,286047003.5,N
1576342275.1,286047005.4,Y
1576342295.9,286047001.3,P
1576342315.7,286047001.9,P
1576342335.5,286047000.0,N
1576342355.4,286046998.5,N
1576342375.2,286046998.6,N
1576342395.1,286047000.6,N
1576342396.0,286047000.6,N
1576342415.8,286047002.7,N
1576342435.6,286046999.7,N
1576342455.5,286047000.3,N
1576342475.3,286047000.2,N
1576342495.2,286047000.5,N
1576342515.9,286046999.7,N
1576342535.7,286047000.1,N
1576342555.6,286047000.6,N
1576342575.4,286047000.4,N
1576342595.2,286046998.1,N
1576342615.1,286047002.8,N
1576342616.0,286047002.8,N
1576342635.8,286047003.7,N
1576342655.7,286047004.3,N
1576342675.5,286047003.7,N
1576342695.3,286047005.5,Y
1576342715.2,286047004.2,P
1576342735.9,286047002.3,N
1576342755.7,286047002.3,N
1576342775.6,286047004.2,Y
1576342795.4,286047001.4,P
